Location: Browne Barr
(41.2080°N, 111.9480°W)
Time: 06:39:53
(UTC+00:00)

X-37B - Pass Details

Date: 07 August 2021
Orbit: 381 x 393 km, 45.0° (Epoch: 29 August)

Event Time Altitude Azimuth Distance (km) Brightness Sun altitude
Exits shadow 10:14:39 45° 1° (N) 531 1.5 -21.5°
Drops below altitude 10° 10:17:31 10° 65° (ENE) 1,398 4.4 -21.1°
Sets 10:19:39 0° 72° (ENE) 2,251 5.5 -20.8°
